Location: Niedergestelen
(46.3129°N, 7.7822°E)
Time: 06:21:38
(UTC+00:00)

Cosmos 2112 Rocket - Pass Details

Date: 01 December 2020
Orbit: 756 x 787 km, 74.0° (Epoch: 18 January)

Event Time Altitude Azimuth Distance (km) Brightness Sun altitude
Rises 18:02:47 0° 189° (S) 3,229 7.5 -23.2°
Reaches altitude 10° 18:05:10 10° 186° (S) 2,311 6.6 -23.6°
Enters shadow 18:09:54 59° 131° (SE) 897 4.0 -24.4°
